Location: Caltech
(34.1382°N, 118.1253°W)
Time: 06:37:42
(UTC-07:00)

NOSS 3-2 (A) - Visible Passes

Search period start: 26 August 2016 00:00
Search period end: 05 September 2016 00:00
Orbit: 899 x 1309 km, 63.4° (Epoch: 22 July)

Date Brightness Start Highest point End Pass type
(mag) Time Alt. Az. Time Alt. Az. Time Alt. Az.
26 Aug 5.8 01:48:27 15° ENE 01:48:27 15° ENE 01:49:41 10° NE visible
26 Aug 4.3 03:35:51 41° NNW 03:35:51 41° NNW 03:41:10 10° NNE visible
27 Aug 4.6 02:52:00 39° NNE 02:52:00 39° NNE 02:56:00 10° NNE visible
27 Aug 5.4 04:39:24 12° WNW 04:41:39 14° NW 04:44:51 10° N visible
28 Aug 5.4 02:08:07 24° NE 02:08:07 24° NE 02:10:35 10° NE visible
28 Aug 5.1 03:55:31 21° NW 03:55:39 21° NW 04:00:32 10° N visible
29 Aug 6.0 01:24:13 13° NE 01:24:13 13° NE 01:24:51 10° NE visible
29 Aug 4.9 03:11:36 29° NNW 03:11:36 29° NNW 03:15:44 10° NNE visible
30 Aug 5.2 02:27:40 27° N 02:27:40 27° N 02:30:41 10° NNE visible
30 Aug 5.7 04:15:19 10° NW 04:16:50 11° NNW 04:18:22 10° NNW visible
31 Aug 5.7 01:43:42 19° NNE 01:43:42 19° NNE 01:45:24 10° NNE visible
31 Aug 5.5 03:31:06 17° NW 03:31:06 17° NW 03:34:49 10° N visible
01 Sep 6.2 00:59:43 11° NE 00:59:43 11° NE 00:59:50 10° NE visible
01 Sep 5.4 02:47:06 21° NNW 02:47:06 21° NNW 02:50:13 10° N visible
02 Sep 5.6 02:03:06 20° N 02:03:06 20° N 02:05:18 10° NNE visible
03 Sep 6.0 01:19:05 15° NNE 01:19:05 15° NNE 01:20:07 10° NNE visible
03 Sep 5.8 03:06:28 13° NNW 03:06:28 13° NNW 03:08:52 10° N visible
04 Sep 5.8 02:22:25 16° NNW 02:22:25 16° NNW 02:24:37 10° N visible
